TIANMU-1 03

Last updated on Mon Jun 22 2026 00:02:46 GMT+0000 (Coordinated Universal Time)

1 55973U 23039A 26172.51236689 .00012760 00000+0 25107-3 0 9997 2 55973 97.5243 346.6508 0004082 88.7124 271.4593 15.47392330181500
UTC large
Height (km)
Speed (km/s)
/
Latitude / Longitude
Inclination (degrees)
Orbital Period (minutes)
Azimuth
Elevation
Range (km)
Doppler Factor

Next 0 passes for location: London (51.5072 / 0.1276)

No passes found over London.
TIANMU-1 03